sat.trackr.live / text

‹ back to catalog

STARLINK-36207

NORAD 67014 · 2025-293M

PAYLOAD ACTIVE UNKNOWN

§ Identity

Operator
Country
US
Launch date
2025-12-10
Launch site
AFWTR
Launch vehicle
Mass (kg)
RCS (m²)

Purposes: comms

External: N2YO · Heavens-Above · Gunter

§ Orbital elements

Epoch: 2026-09-20T13:06:52.737408Z

Period
96.11 min
Inclination
70.0014°
Eccentricity
0.0003905
Mean motion
14.98337086 rev/d
Perigee alt
569.3 km
Apogee alt
574.7 km
Semi-major
6,950.2 km
B*
1.8801e-4
RAAN
323.2265°
Arg perigee
269.7712°
Mean anomaly
90.3000°
Rev number
4,407

§ Raw data

STARLINK-362071 67014U 25293M   26263.54644372  .00002151  00000+0  18801-3 0  99922 67014  70.0014 323.2265 0003905 269.7712  90.3000 14.98337086 44072

JSON: /api/v1/satellites/67014 · /tle

For live sub-satellite position, see the globe view (requires WebGL).

§ Visibility from observer

Set your observer location to see the next 7 days of passes ≥ 10°. The values pass through the URL so the page stays shareable.

No JS? Fill the form by hand. The geolocation button needs JavaScript.